Regional Weather Roundup
Issued by NWS

Home | Current Version | Previous Version | Graphics & Text | Print | Product List | Glossary On
Versions: 1 2 3 4 5 6 7 8 9 10 11 12 13 14 15 16 17 18 19 20 21 22 23 24 25 26 27 28 29 30 31 32 33 34 35 36 37 38 39 40 41 42 43 44 45 46 47 48 49 50
000
ASUS43 KMPX 140101
RWRMN
WEATHER ROUNDUP FOR MINNESOTA
NATIONAL WEATHER SERVICE TWIN CITIES/CHANHASSEN MN
800 PM CDT SUN JUL 13 2014


NOTE: "FAIR" INDICATES FEW OR NO CLOUDS BELOW 12,000 FEET WITH NO
SIGNIFICANT WEATHER AND/OR OBSTRUCTIONS TO VISIBILITY. N/A MEANS
CURRENT SKY AND/OR WEATHER CONDITIONS ARE NOT AVAILABLE.

MNZ060>063-068>070-140200-
   Twin Cities Metro

CITY           SKY/WX    TMP DP  RH WIND       PRES   REMARKS
TWIN CITIES    PTCLDY    72  49  44 NW10      29.89R
ST PAUL        MOCLDY    73  47  39 NW13      29.89R
CRYSTAL        CLEAR     74  45  35 NW10      29.88R
BLAINE         PTCLDY    73  46  38 NW12      29.89R
LAKEVILLE      CLEAR     70  52  52 NW9       29.90R
EDEN PRAIRIE   PTCLDY    74  47  38 NW9       29.89R
SOUTH ST PAUL  PTCLDY    74  46  37 W10       29.89R
LAKE ELMO      FAIR      70  52  52 NW6       29.90S
$$
MNZ001>005-007-008-013>017-022>024-027-028-140200-
   Northwest Minnesota

CITY           SKY/WX    TMP DP  RH WIND       PRES   REMARKS
BEMIDJI        CLOUDY    55  51  87 NW9       29.90S
HALLOCK        SUNNY     63  46  55 NW21G33   29.91R
ROSEAU         RAIN      57  52  82 W17G29    29.88R
WARROAD        DRIZZLE   55  52  88 W12G20    29.86S
THIEF RVR FALL CLOUDY    61  48  63 NW14G20   29.92S
CROOKSTON      CLOUDY    63  48  59 NW12      29.94R
FOSSTON        CLOUDY    57  46  67 NW12      29.93S
MOORHEAD       PTSUNNY   70  46  43 N15G24    29.94R
PARK RAPIDS    LGT RAIN  63  48  58 NW16G26   29.91R
$$
MNZ006-009>011-018-025>026-140200-
   North Central Minnesota

CITY           SKY/WX    TMP DP  RH WIND       PRES   REMARKS
BAUDETTE       CLOUDY    56  50  80 VRB6      29.85S
FLAG ISLAND    LGT RAIN  55  52  88 NW21G26   29.82R
INTL FALLS     LGT RAIN  55  49  80 W9        29.83S
WASKISH        LGT RAIN  57  52  82 W13G22    29.88R
BIG FORK       MOCLDY    55  50  82 W3        29.88S
LONGVILLE      CLOUDY    63  50  63 W8        29.89R
GRAND RAPIDS   CLOUDY    63  45  51 NW16G29   29.87S
CRANE LAKE     LGT RAIN  54  52  94 SW5       29.85S
ORR            LGT RAIN  54  48  82 W5        29.83S
COOK           RAIN      54  52  94 W8        29.87R
$$
MNZ012-019>021-037-140200-
   Northeast Minnesota

CITY           SKY/WX    TMP DP  RH WIND       PRES   REMARKS
DULUTH         MOCLDY    65  47  52 NW9       29.85R
ELY            MOCLDY    55  48  76 W6        29.84S
HIBBING        MOCLDY    58  47  66 NW18      29.87R
EVELETH        HVY RAIN  57  52  82 NW9G22    29.88R
DULUTH HARBOR  CLOUDY    70  50  49 W14       29.84R
TWO HARBORS    PTCLDY    61  48  63 W6        29.82R
SILVER BAY     LGT RAIN  57  54  88 W6        29.82R
GRAND MARAIS     N/A     59  51  75 CALM      29.80R
G MARAIS ARPRT LGT RAIN  55  48  76 W5        29.83R
$$
MNZ029>031-032-039>041-046>048-054>057-064-140200-
   West Central Minnesota

CITY           SKY/WX    TMP DP  RH WIND       PRES   REMARKS
FERGUS FALLS   CLOUDY    70  43  37 N12       29.93R
WHEATON        SUNNY     70  45  40 W9G16     29.95R
MORRIS         MOSUNNY   70  45  40 NW14      29.92S
ALEXANDRIA     PTSUNNY   71  43  36 NW14      29.93R
ELBOW LAKE     FAIR      70  46  43 NW17G23   29.92R
WADENA         MOSUNNY   64  48  55 NW12      29.91R
GLENWOOD       PTCLDY    68  46  45 NW9       29.93R
APPLETON       SUNNY     73  45  35 NW8       29.93S
BENSON         PTCLDY    72  46  40 NW9       29.93R
ORTONVILLE     SUNNY     73  45  35 NW12      29.94S
MADISON        SUNNY     73  48  40 NW8       29.95R
WILLMAR        FAIR      73  41  31 W8        29.94S
$$
MNZ033>034-036-042>043-049>051-058-059-140200-
   Central Minnesota

CITY           SKY/WX    TMP DP  RH WIND       PRES   REMARKS
ST CLOUD       CLEAR     73  45  36 W8        29.89S
SAUK CENTRE    MOCLDY    70  44  38 W7        29.91S
PAYNESVILLE    CLEAR     67  44  42 W7        29.92S HAZE
AITKIN         MOCLDY    68  52  56 CALM      29.87S
PINE RIVER     RAIN      64  52  63 N6        29.93R
BRAINERD       CLOUDY    72  47  40 NW7       29.89S
STAPLES        CLOUDY    64  46  52 NW7       29.91R
LONG PRAIRIE   FAIR      68  46  45 W8        29.92R
LITTLE FALLS   CLEAR     70  43  37 W8        29.90R
LITCHFIELD     PTCLDY    73  46  38 W9        29.93R
BUFFALO        PTCLDY    71  45  39 W5        29.91S
MAPLE LAKE     PTCLDY    71  51  48 W5        29.91S
$$
MNZ037-044-045-052-053-140200-
   East Central Minnesota

CITY           SKY/WX    TMP DP  RH WIND       PRES   REMARKS
PRINCETON      PTCLDY    72  52  49 CALM      29.89S
MORA           PTCLDY    66  45  45 W5        29.90R
CAMBRIDGE      PTCLDY    72  54  53 W3        29.88R
RUSH CITY      CLEAR     67  49  51 CALM      29.89R
MOOSE LAKE     CLOUDY    64  48  55 W3        29.85S
HINCKLEY       CLOUDY    68  52  56 W3        29.88R
CLOQUET        LGT RAIN  63  48  59 W10G18    29.87R
MCGREGOR       CLOUDY    64  46  52 NW6       29.88R
$$
MNZ071>073-080-081-089-090-097-098-140200-
   Southwest Minnesota

CITY           SKY/WX    TMP DP  RH WIND       PRES   REMARKS
MONTEVIDEO     CLEAR     73  45  35 N10       29.95R
GRANITE FALLS  CLEAR     71  51  48 NW7       29.95S
CANBY          SUNNY     73  46  38 NW12      29.97R
MARSHALL       CLEAR     73  48  40 NW8       29.94S
REDWOOD FALLS  CLEAR     73  49  42 NW7       29.93R
OLIVIA         CLEAR     72  50  46 NW6       29.93R
PIPESTONE      CLEAR     75  52  43 NW9G16    29.98R
WINDOM         CLEAR     73  54  49 NW9       29.95S
WORTHINGTON    CLEAR     73  55  53 NW10      29.97S
JACKSON        CLEAR     73  54  49 NW10      29.95S
TRACY          CLEAR     72  54  53 NW6       29.96R
SLAYTON        CLEAR     72  52  48 CALM      29.98R
$$
MNZ065>067-074>077-082>085-091>093-140200-
   South Central Minnesota

CITY           SKY/WX    TMP DP  RH WIND       PRES   REMARKS
MANKATO        CLEAR     73  46  38 NW9       29.92R
NEW ULM        CLEAR     72  52  49 NW7       29.93R
ST JAMES       CLEAR     73  52  46 NW5       29.94S
FAIRMONT       PTCLDY    75  54  46 N7        29.93S
GLENCOE        CLEAR     73  46  38 W7        29.92R
FARIBAULT      PTCLDY    75  50  41 W8        29.92R
OWATONNA       CLEAR     73  46  38 W10G20    29.92R
WASECA         CLEAR     72  37  28 NW10      29.94R
ALBERT LEA     CLEAR     73  54  49 NW5       29.92S
$$
MNZ078>079-086>088-094>096-140200-
   Southeast Minnesota

CITY           SKY/WX    TMP DP  RH WIND       PRES   REMARKS
ROCHESTER      CLEAR     70  60  70 W3        29.92F
RED WING       CLEAR     73  50  43 NW6       29.87S
STANTON        PTCLDY    73  54  50 NW8       29.89R
DODGE CENTER   CLEAR     73  50  43 W12       29.92R
WINONA         CLEAR     73  52  46 CALM      29.89F
PRESTON        CLEAR     71  56  59 CALM      29.92S
$$
ABBREVIATIONS USED IN REMARKS
   TC - TEMPERATURES IN CELSIUS
  WCI - WIND CHILL INDEX
   HX - HEAT INDEX
  VSB - VISIBILITY
$$



USA.gov is the U.S. government's official web portal to all federal, state and local government web resources and services.